Time,TemperatureF,DewpointF,PressureIn,WindDirection,WindDirectionDegrees,WindSpeedMPH,WindSpeedGustMPH,Humidity,HourlyPrecipIn,Conditions,Clouds,dailyrainin,SolarRadiationWatts/m^2,SoftwareType,DateUTC
2013-11-25 00:01:00,9.0,1.0,-100.00,ESE,114,3.0,7.0,69,0.00,,,0.00,0.000000,,2013-11-25 05:01:00,
2013-11-25 00:43:00,9.0,1.0,-100.00,ESE,114,3.0,7.0,69,0.00,,,0.00,0.000000,,2013-11-25 05:43:00,
2013-11-25 00:53:00,9.0,1.0,-100.00,ESE,114,3.0,7.0,69,0.00,,,0.00,0.000000,,2013-11-25 05:53:00,
2013-11-25 01:01:00,10.0,0.0,-100.00,WSW,256,5.0,7.0,63,0.00,,,0.00,0.000000,,2013-11-25 06:01:00,
2013-11-25 01:42:00,10.0,0.0,-100.00,WSW,256,5.0,7.0,63,0.00,,,0.00,0.000000,,2013-11-25 06:42:00,
2013-11-25 01:52:00,10.0,0.0,-100.00,WSW,256,5.0,7.0,63,0.00,,,0.00,0.000000,,2013-11-25 06:52:00,
2013-11-25 02:01:00,10.0,1.0,-100.00,WSW,240,5.0,10.0,66,0.00,,,0.00,0.000000,,2013-11-25 07:01:00,
2013-11-25 02:42:00,10.0,1.0,-100.00,WSW,240,5.0,10.0,66,0.00,,,0.00,0.000000,,2013-11-25 07:42:00,
2013-11-25 02:52:00,10.0,1.0,-100.00,WSW,240,5.0,10.0,66,0.00,,,0.00,0.000000,,2013-11-25 07:52:00,
2013-11-25 03:01:00,9.0,2.0,-100.00,SW,224,3.0,7.0,71,0.00,,,0.00,0.000000,,2013-11-25 08:01:00,
2013-11-25 03:42:00,9.0,2.0,-100.00,SW,224,3.0,7.0,71,0.00,,,0.00,0.000000,,2013-11-25 08:42:00,
2013-11-25 03:52:00,9.0,2.0,-100.00,SW,224,3.0,7.0,71,0.00,,,0.00,0.000000,,2013-11-25 08:52:00,
2013-11-25 04:01:00,10.0,2.0,-100.00,WSW,249,2.0,5.0,68,0.00,,,0.00,0.000000,,2013-11-25 09:01:00,
2013-11-25 04:22:00,10.0,2.0,-100.00,WSW,249,2.0,5.0,68,0.00,,,0.00,0.000000,,2013-11-25 09:22:00,
2013-11-25 04:33:00,10.0,2.0,-100.00,WSW,249,2.0,5.0,68,0.00,,,0.00,0.000000,,2013-11-25 09:33:00,
2013-11-25 04:43:00,10.0,2.0,-100.00,WSW,249,2.0,5.0,68,0.00,,,0.00,0.000000,,2013-11-25 09:43:00,
2013-11-25 04:53:00,10.0,2.0,-100.00,WSW,249,2.0,5.0,68,0.00,,,0.00,0.000000,,2013-11-25 09:53:00,
2013-11-25 05:01:00,10.0,2.0,-100.00,SSW,204,3.0,4.0,69,0.00,,,0.00,0.000000,,2013-11-25 10:01:00,
2013-11-25 05:43:00,10.0,2.0,-100.00,SSW,204,3.0,4.0,69,0.00,,,0.00,0.000000,,2013-11-25 10:43:00,
2013-11-25 05:53:00,10.0,2.0,-100.00,SSW,204,3.0,4.0,69,0.00,,,0.00,0.000000,,2013-11-25 10:53:00,
2013-11-25 06:01:00,10.0,3.0,-100.00,SW,219,3.0,4.0,72,0.00,,,0.00,0.000000,,2013-11-25 11:01:00,
2013-11-25 06:43:00,10.0,3.0,-100.00,SW,219,3.0,4.0,72,0.00,,,0.00,0.000000,,2013-11-25 11:43:00,
2013-11-25 06:52:00,10.0,3.0,-100.00,SW,219,3.0,4.0,72,0.00,,,0.00,0.000000,,2013-11-25 11:52:00,
2013-11-25 08:01:00,11.0,5.0,-100.00,NE,51,2.0,4.0,76,0.00,,,0.00,18.000000,,2013-11-25 13:01:00,
2013-11-25 08:52:00,11.0,5.0,-100.00,NE,51,2.0,4.0,76,0.00,,,0.00,18.000000,,2013-11-25 13:52:00,
2013-11-25 10:01:00,20.0,8.0,-100.00,SSE,161,3.0,5.0,60,-99.99,,,0.00,342.000000,,2013-11-25 15:01:00,
2013-11-25 10:45:00,20.0,8.0,-100.00,SSE,161,3.0,5.0,60,-99.99,,,0.00,342.000000,,2013-11-25 15:45:00,
2013-11-25 10:54:00,20.0,8.0,-100.00,SSE,161,3.0,5.0,60,-99.99,,,0.00,342.000000,,2013-11-25 15:54:00,
2013-11-25 11:01:00,27.0,5.0,-100.00,SSW,204,5.0,7.0,39,0.00,,,-99.99,527.000000,,2013-11-25 16:01:00,
2013-11-25 11:23:00,27.0,5.0,-100.00,SSW,204,5.0,7.0,39,0.00,,,-99.99,527.000000,,2013-11-25 16:23:00,
2013-11-25 11:33:00,27.0,5.0,-100.00,SSW,204,5.0,7.0,39,0.00,,,-99.99,527.000000,,2013-11-25 16:33:00,
2013-11-25 11:43:00,27.0,5.0,-100.00,SSW,204,5.0,7.0,39,0.00,,,-99.99,527.000000,,2013-11-25 16:43:00,
2013-11-25 11:52:00,27.0,5.0,-100.00,SSW,204,5.0,7.0,39,0.00,,,-99.99,527.000000,,2013-11-25 16:52:00,
2013-11-25 12:01:00,32.0,3.0,-100.00,SW,220,5.0,9.0,28,0.00,,,-99.99,614.000000,,2013-11-25 17:01:00,
2013-11-25 12:43:00,32.0,3.0,-100.00,SW,220,5.0,9.0,28,0.00,,,-99.99,614.000000,,2013-11-25 17:43:00,
2013-11-25 12:52:00,32.0,3.0,-100.00,SW,220,5.0,9.0,28,0.00,,,-99.99,614.000000,,2013-11-25 17:52:00,
2013-11-25 13:01:00,35.0,0.0,-100.00,SW,220,5.0,10.0,22,0.00,,,0.00,582.000000,,2013-11-25 18:01:00,
2013-11-25 13:42:00,35.0,0.0,-100.00,SW,220,5.0,10.0,22,0.00,,,0.00,582.000000,,2013-11-25 18:42:00,
2013-11-25 13:52:00,35.0,0.0,-100.00,SW,220,5.0,10.0,22,0.00,,,0.00,582.000000,,2013-11-25 18:52:00,
2013-11-25 14:01:00,37.0,-1.0,-100.00,SSW,213,6.0,10.0,19,0.00,,,0.00,557.000000,,2013-11-25 19:01:00,
2013-11-25 14:42:00,37.0,-1.0,-100.00,SSW,213,6.0,10.0,19,0.00,,,0.00,557.000000,,2013-11-25 19:42:00,
2013-11-25 14:52:00,37.0,-1.0,-100.00,SSW,213,6.0,10.0,19,0.00,,,0.00,557.000000,,2013-11-25 19:52:00,
2013-11-25 15:01:00,37.0,-1.0,-100.00,SSW,208,6.0,9.0,19,0.00,,,0.00,385.000000,,2013-11-25 20:01:00,
2013-11-25 15:42:00,37.0,-1.0,-100.00,SSW,208,6.0,9.0,19,0.00,,,0.00,385.000000,,2013-11-25 20:42:00,
2013-11-25 15:53:00,37.0,-1.0,-100.00,SSW,208,6.0,9.0,19,0.00,,,0.00,385.000000,,2013-11-25 20:53:00,
2013-11-25 16:01:00,36.0,1.0,-100.00,SW,219,6.0,8.0,22,0.00,,,0.00,276.000000,,2013-11-25 21:01:00,
2013-11-25 16:44:00,36.0,1.0,-100.00,SW,219,6.0,8.0,22,0.00,,,0.00,276.000000,,2013-11-25 21:44:00,
2013-11-25 16:54:00,36.0,1.0,-100.00,SW,219,6.0,8.0,22,0.00,,,0.00,276.000000,,2013-11-25 21:54:00,
2013-11-25 17:01:00,32.0,3.0,-100.00,SW,231,7.0,11.0,29,0.00,,,0.00,34.000000,,2013-11-25 22:01:00,
2013-11-25 17:43:00,32.0,3.0,-100.00,SW,231,7.0,11.0,29,0.00,,,0.00,34.000000,,2013-11-25 22:43:00,
2013-11-25 17:53:00,32.0,3.0,-100.00,SW,231,7.0,11.0,29,0.00,,,0.00,34.000000,,2013-11-25 22:53:00,
2013-11-25 18:01:00,31.0,5.0,-100.00,SSW,208,5.0,11.0,32,0.00,,,0.00,0.000000,,2013-11-25 23:01:00,
2013-11-25 18:42:00,31.0,5.0,-100.00,SSW,208,5.0,11.0,32,0.00,,,0.00,0.000000,,2013-11-25 23:42:00,
2013-11-25 18:52:00,31.0,5.0,-100.00,SSW,208,5.0,11.0,32,0.00,,,0.00,0.000000,,2013-11-25 23:52:00,
2013-11-25 19:01:00,29.0,5.0,-100.00,SSW,211,6.0,10.0,35,0.00,,,0.00,0.000000,,2013-11-26 00:01:00,
2013-11-25 19:22:00,29.0,5.0,-100.00,SSW,211,6.0,10.0,35,0.00,,,0.00,0.000000,,2013-11-26 00:22:00,
2013-11-25 19:32:00,29.0,5.0,-100.00,SSW,211,6.0,10.0,35,0.00,,,0.00,0.000000,,2013-11-26 00:32:00,
2013-11-25 19:42:00,29.0,5.0,-100.00,SSW,211,6.0,10.0,35,0.00,,,0.00,0.000000,,2013-11-26 00:42:00,
2013-11-25 19:52:00,29.0,5.0,-100.00,SSW,211,6.0,10.0,35,0.00,,,0.00,0.000000,,2013-11-26 00:52:00,
2013-11-25 20:01:00,29.0,5.0,-100.00,SSW,213,7.0,10.0,35,0.00,,,0.00,0.000000,,2013-11-26 01:01:00,
2013-11-25 20:42:00,29.0,5.0,-100.00,SSW,213,7.0,10.0,35,0.00,,,0.00,0.000000,,2013-11-26 01:42:00,
2013-11-25 20:52:00,29.0,5.0,-100.00,SSW,213,7.0,10.0,35,0.00,,,0.00,0.000000,,2013-11-26 01:52:00,
2013-11-25 21:01:00,30.0,6.0,-100.00,SW,218,7.0,11.0,36,0.00,,,0.00,0.000000,,2013-11-26 02:01:00,
2013-11-25 21:42:00,30.0,6.0,-100.00,SW,218,7.0,11.0,36,0.00,,,0.00,0.000000,,2013-11-26 02:42:00,
2013-11-25 21:52:00,30.0,6.0,-100.00,SW,218,7.0,11.0,36,0.00,,,0.00,0.000000,,2013-11-26 02:52:00,
2013-11-25 22:01:00,30.0,6.0,-100.00,SSW,205,6.0,10.0,35,0.00,,,0.00,0.000000,,2013-11-26 03:01:00,
2013-11-25 22:22:00,30.0,6.0,-100.00,SSW,205,6.0,10.0,35,0.00,,,0.00,0.000000,,2013-11-26 03:22:00,
2013-11-25 22:33:00,30.0,6.0,-100.00,SSW,205,6.0,10.0,35,0.00,,,0.00,0.000000,,2013-11-26 03:33:00,
2013-11-25 22:44:00,30.0,6.0,-100.00,SSW,205,6.0,10.0,35,0.00,,,0.00,0.000000,,2013-11-26 03:44:00,
2013-11-25 22:54:00,30.0,6.0,-100.00,SSW,205,6.0,10.0,35,0.00,,,0.00,0.000000,,2013-11-26 03:54:00,